[[{"header":{"parameterUnit":"m.s-1","parameterCategory":1,"la1":30.2991,"la2":30.254,"lo1":-89.0895,"lo2":-89.0444,"dy":0.0017,"dx":0.0017,"nx":28,"ny":28,"refTime":"2024-03-29T21:00:00:Z","depth":0,"parameterNumber":2,"parameterNumberName":"U-component_of_WINDS"},"data":[0,0,0,0,0,0,0,0,0,0,0,0,0,0,0,0,0,0,0,0,0,0,0,0,0,0,0,0,0,0,0,0,0,0,0,0,0,0,0,0,0,0,0,0,0,0,0,0,0,0,0,0,0,0,0,0,0,0,-0.4323,-0.4323,0,-0.4341,-0.4341,-0.4341,-0.4343,-0.4343,-0.4342,-0.4342,-0.4362,-0.4362,-0.4363,0,0,0,0,0,0,0,0,0,0,0,0,0,-0.4292,-0.4293,-0.4323,-0.4323,-0.4324,-0.4341,-0.4341,-0.4341,-0.4343,-0.4343,-0.4342,-0.4342,-0.4362,-0.4362,-0.4363,0,0,0,0,0,0,0,0,0,0,0,0,0,-0.4307,-0.4293,-0.4323,-0.4326,-0.4327,-0.4341,-0.4341,-0.4341,-0.4343,-0.4343,-0.4342,-0.4342,-0.4361,-0.4362,-0.4363,-0.4376,0,0,-0.4367,-0.4367,0,0,0,0,0,0,0,0,-0.4306,-0.4309,-0.4326,-0.4326,-0.4327,-0.4339,-0.4337,-0.4353,-0.4343,-0.4337,-0.4342,-0.4342,-0.4355,-0.4356,-0.436,-0.4377,-0.4377,-0.4367,-0.4367,-0.4368,-0.4368,0,0,0,0,0,0,0,-0.4305,-0.4308,-0.433,-0.4326,-0.4327,-0.4328,-0.4329,-0.434,-0.4347,-0.4337,-0.4338,-0.434,-0.4355,-0.4359,-0.4361,-0.4378,-0.4367,-0.4368,-0.4368,-0.4369,-0.4406,-0.4406,0,0,0,0,0,0,-0.4304,-0.4307,-0.433,-0.4331,-0.4316,-0.4328,-0.433,-0.4336,-0.4347,-0.4349,-0.434,-0.434,-0.4358,-0.4359,-0.4361,-0.4377,-0.4368,-0.4369,-0.4369,-0.4405,-0.4406,-0.4406,0,0,0,0,0,0,-0.4303,-0.4306,-0.4329,-0.4319,-0.4322,-0.4329,-0.4335,-0.4336,-0.434,-0.4349,-0.435,-0.4343,-0.4357,-0.436,-0.4372,-0.4378,-0.4369,-0.437,-0.4405,-0.4406,-0.4406,-0.4408,0,0,0,0,0,0,-0.4302,-0.4305,-0.431,-0.4319,-0.4322,-0.4339,-0.4335,-0.4337,-0.4342,-0.4342,-0.4352,-0.4354,-0.4357,-0.4371,-0.4373,-0.4379,-0.4371,-0.4405,-0.4405,-0.4406,-0.4407,-0.4408,-0.4409,0,0,0,0,0,-0.4301,-0.431,-0.431,-0.4313,-0.4328,-0.4339,-0.4341,-0.4345,-0.4343,-0.4347,-0.4353,-0.4353,-0.4377,-0.4372,-0.4375,-0.4381,-0.4404,-0.4405,-0.4406,-0.4407,-0.4408,-0.4409,0,0,0,0,0,0,-0.4301,-0.4311,-0.4311,-0.4323,-0.433,-0.4339,-0.4345,-0.4346,-0.4355,-0.4354,-0.4359,-0.4361,-0.4374,-0.4379,-0.4373,-0.4394,-0.439,-0.4392,-0.439,-0.4391,-0.4392,-0.4391,-0.4372,0,0,0,0,0,-0.4303,-0.431,-0.4319,-0.4329,-0.4332,-0.4338,-0.4343,-0.4346,-0.4353,-0.4356,-0.4363,-0.4371,-0.438,-0.4386,-0.4395,-0.4408,-0.4411,-0.4414,-0.4415,-0.4416,-0.4417,-0.4425,-0.4427,-0.4409,-0.4409,-0.4409,0,0,-0.4306,-0.4312,-0.4317,-0.4329,-0.4335,-0.4343,-0.4341,-0.435,-0.4356,-0.4358,-0.437,-0.4375,-0.4384,-0.4397,-0.4403,-0.4402,-0.4422,-0.4417,-0.4417,-0.4418,-0.4426,-0.4428,-0.4429,-0.4409,-0.4409,-0.4409,0,0,-0.4316,-0.4321,-0.433,-0.4336,-0.4345,-0.4349,-0.4351,-0.436,-0.4363,-0.4375,-0.4377,-0.4385,-0.44,-0.4407,-0.4413,-0.4426,-0.4427,-0.4428,-0.4434,-0.4441,-0.4443,-0.4444,-0.4449,-0.4451,-0.443,-0.443,-0.443,0,-0.4319,-0.4331,-0.4335,-0.4344,-0.4349,-0.4351,-0.436,-0.4366,-0.4377,-0.4381,-0.4379,-0.4399,-0.4406,-0.442,-0.4423,-0.4428,-0.4431,-0.4427,-0.4442,-0.4443,-0.4445,-0.445,-0.4451,-0.443,-0.443,-0.443,-0.443,0,-0.4334,-0.4343,-0.4349,-0.436,-0.4366,-0.4375,-0.4381,-0.4387,-0.4389,-0.4393,-0.4406,-0.4413,-0.4424,-0.4428,-0.443,-0.4443,-0.4442,-0.4441,-0.4438,-0.4446,-0.4451,-0.4453,-0.443,-0.443,-0.443,-0.443,0,0,-0.4345,-0.4357,-0.436,-0.4365,-0.4375,-0.4382,-0.4391,-0.4401,-0.4407,-0.4415,-0.4423,-0.4437,-0.4436,-0.4442,-0.4445,-0.4452,-0.4462,-0.445,-0.445,-0.4452,-0.4478,-0.4478,-0.448,-0.4463,-0.4463,-0.4463,-0.4477,0,-0.4356,-0.4373,-0.4376,-0.4391,-0.4399,-0.4401,-0.441,-0.4417,-0.4422,-0.443,-0.4435,-0.4445,-0.4443,-0.4447,-0.4453,-0.4459,-0.4467,-0.4458,-0.4471,-0.4472,-0.4469,-0.4483,-0.4484,-0.4496,-0.4479,-0.4479,-0.4479,0,-0.4372,-0.438,-0.4395,-0.4404,-0.4408,-0.4415,-0.4425,-0.4433,-0.4441,-0.4444,-0.4451,-0.4454,-0.4464,-0.446,-0.4476,-0.4469,-0.4475,-0.4479,-0.4479,-0.4481,-0.4476,-0.4485,-0.45,-0.4502,-0.4482,-0.4482,-0.4482,0,-0.4378,-0.4393,-0.4404,-0.4408,-0.4419,-0.4424,-0.4429,-0.4437,-0.4443,-0.4452,-0.4456,-0.4466,-0.4472,-0.448,-0.4485,-0.4482,-0.45,-0.4497,-0.4503,-0.4503,-0.4507,-0.4507,-0.4524,-0.4511,-0.4511,-0.451,-0.451,0,-0.4391,-0.44,-0.4407,-0.4414,-0.4425,-0.4429,-0.444,-0.4445,-0.4452,-0.4461,-0.4463,-0.4471,-0.4477,-0.4486,-0.449,-0.4503,-0.4505,-0.4508,-0.4509,-0.4508,-0.4508,-0.4512,-0.4511,-0.4511,-0.4511,-0.4511,-0.4511,0,-0.44,-0.4405,-0.4417,-0.4426,-0.4429,-0.4437,-0.4445,-0.4452,-0.4457,-0.4467,-0.447,-0.4477,-0.4488,-0.4494,-0.4508,-0.4511,-0.4524,-0.4525,-0.4521,-0.4522,-0.4529,-0.4528,-0.4549,-0.4552,-0.4536,-0.4536,-0.4537,0,-0.4408,-0.4415,-0.4425,-0.443,-0.4435,-0.4444,-0.445,-0.4455,-0.4461,-0.4472,-0.4478,-0.4489,-0.4497,-0.4515,-0.4522,-0.4532,-0.4533,-0.454,-0.4535,-0.4534,-0.4534,-0.4533,-0.4534,-0.4541,-0.4541,-0.4541,-0.4541,0,-0.4421,-0.4423,-0.4431,-0.4441,-0.4448,-0.4455,-0.4463,-0.4468,-0.4474,-0.4481,-0.4492,-0.4499,-0.4513,-0.4523,-0.4535,-0.454,-0.4542,-0.4542,-0.4545,-0.4544,-0.4541,-0.4543,-0.4524,-0.4542,-0.4542,-0.4542,-0.4542,-0.4542,-0.443,-0.4436,-0.4444,-0.4454,-0.446,-0.4467,-0.4474,-0.448,-0.4489,-0.45,-0.4503,-0.4514,-0.4523,-0.4538,-0.4544,-0.4554,-0.4553,-0.4556,-0.4557,-0.4557,-0.4558,-0.454,-0.4556,-0.4556,-0.4556,-0.4556,-0.4556,0,-0.4444,-0.4449,-0.4457,-0.4468,-0.4475,-0.4476,-0.4484,-0.4491,-0.4501,-0.4509,-0.4517,-0.453,-0.4541,-0.4549,-0.456,-0.4566,-0.4567,-0.4569,-0.4568,-0.457,-0.4558,-0.4555,-0.4568,-0.4568,-0.4568,-0.4568,-0.4568,-0.4568,-0.4452,-0.4463,-0.4466,-0.4481,-0.4486,-0.4497,-0.4502,-0.4509,-0.4515,-0.4529,-0.4538,-0.4543,-0.4551,-0.4563,-0.4573,-0.4575,-0.4579,-0.4581,-0.4583,-0.4572,-0.4571,-0.4569,-0.4567,-0.4581,-0.4581,-0.4594,-0.4594,-0.4594]},{"header":{"parameterUnit":"m.s-1","parameterCategory":1,"la1":30.2991,"la2":30.254,"lo1":-89.0895,"lo2":-89.0444,"dy":0.0017,"dx":0.0017,"nx":28,"ny":28,"refTime":"2024-03-29T21:00:00:Z","depth":0,"parameterNumber":3,"parameterNumberName":"V-component_of_WINDS"},"data":[0,0,0,0,0,0,0,0,0,0,0,0,0,0,0,0,0,0,0,0,0,0,0,0,0,0,0,0,0,0,0,0,0,0,0,0,0,0,0,0,0,0,0,0,0,0,0,0,0,0,0,0,0,0,0,0,0,0,3.4717,3.4717,0,3.4709,3.4709,3.4709,3.4645,3.4644,3.4642,3.4641,3.4633,3.4634,3.4636,0,0,0,0,0,0,0,0,0,0,0,0,0,3.4676,3.4677,3.4717,3.4717,3.4717,3.4709,3.4709,3.4709,3.4646,3.4644,3.4642,3.464,3.4633,3.4634,3.4636,0,0,0,0,0,0,0,0,0,0,0,0,0,3.4683,3.4677,3.4717,3.4684,3.4681,3.4709,3.4709,3.4709,3.4646,3.4644,3.4641,3.4639,3.4632,3.4634,3.4636,3.4695,0,0,3.4642,3.4643,0,0,0,0,0,0,0,0,3.4683,3.4685,3.4689,3.4686,3.4683,3.4676,3.4692,3.4704,3.4647,3.4659,3.4641,3.4638,3.4649,3.465,3.4653,3.4695,3.4694,3.4642,3.4643,3.4644,3.4644,0,0,0,0,0,0,0,3.4683,3.4685,3.4714,3.4689,3.4685,3.467,3.4668,3.4694,3.4668,3.4658,3.4653,3.4653,3.4647,3.4652,3.4653,3.4694,3.4642,3.4644,3.4645,3.4645,3.4784,3.4787,0,0,0,0,0,0,3.4687,3.4685,3.4714,3.4714,3.4677,3.4672,3.4671,3.468,3.4667,3.4663,3.4655,3.465,3.465,3.4651,3.4652,3.4721,3.4644,3.4646,3.4647,3.4782,3.4785,3.4787,0,0,0,0,0,0,3.4686,3.469,3.4714,3.4698,3.47,3.4675,3.4687,3.4682,3.4686,3.4665,3.466,3.4665,3.4648,3.465,3.4685,3.472,3.4646,3.4648,3.4779,3.4783,3.4786,3.4859,0,0,0,0,0,0,3.4685,3.469,3.4712,3.4699,3.4701,3.4748,3.4689,3.4683,3.469,3.4683,3.4673,3.4669,3.4646,3.4682,3.4687,3.4721,3.465,3.4775,3.478,3.4785,3.4853,3.4865,3.4874,0,0,0,0,0,3.4684,3.4733,3.4714,3.4718,3.4728,3.475,3.4751,3.4724,3.4693,3.4715,3.4701,3.4669,3.4715,3.4687,3.4691,3.4726,3.4773,3.4779,3.4784,3.4848,3.4862,3.4874,0,0,0,0,0,0,3.4751,3.4731,3.4709,3.4756,3.4755,3.4739,3.4766,3.4739,3.4747,3.4741,3.4706,3.4705,3.4745,3.4739,3.4708,3.4783,3.4739,3.4745,3.4786,3.4799,3.4809,3.481,3.4651,0,0,0,0,0,3.4772,3.4791,3.4771,3.4814,3.4815,3.4791,3.4799,3.4778,3.4776,3.4775,3.4764,3.4764,3.4778,3.4788,3.48,3.4852,3.4849,3.4878,3.4889,3.4898,3.4904,3.4931,3.4944,3.4806,3.4806,3.4806,0,0,3.4814,3.4805,3.4819,3.4828,3.4825,3.4845,3.4791,3.4815,3.483,3.4779,3.4812,3.4804,3.48,3.4845,3.4864,3.4841,3.4942,3.4905,3.4912,3.4914,3.4939,3.4952,3.4963,3.481,3.4809,3.4809,0,0,3.4901,3.4896,3.4931,3.4929,3.4925,3.4909,3.4917,3.4905,3.4898,3.4931,3.4893,3.491,3.4935,3.4934,3.4937,3.5024,3.4995,3.5029,3.5085,3.5112,3.5123,3.5132,3.5163,3.5175,3.5036,3.5036,3.5036,0,3.4954,3.4983,3.4953,3.4979,3.4984,3.4939,3.4974,3.4974,3.4974,3.4979,3.4953,3.4984,3.4978,3.5022,3.5043,3.5047,3.5056,3.503,3.5124,3.5133,3.5141,3.5171,3.5182,3.504,3.5039,3.5039,3.5039,0,3.5048,3.5069,3.5098,3.5099,3.5107,3.5138,3.5113,3.5125,3.5103,3.5089,3.5123,3.5115,3.5124,3.5133,3.5112,3.5174,3.516,3.513,3.5084,3.5159,3.5186,3.5197,3.5046,3.5044,3.5043,3.5042,0,0,3.5178,3.5162,3.5173,3.5173,3.5166,3.5181,3.521,3.5219,3.523,3.5232,3.5255,3.5278,3.5249,3.5253,3.5231,3.5255,3.5325,3.5222,3.5221,3.5241,3.5393,3.5416,3.5429,3.5305,3.5307,3.5309,3.5393,0,3.5262,3.531,3.5284,3.5336,3.5355,3.5312,3.5337,3.5335,3.5323,3.5337,3.5324,3.534,3.5302,3.5304,3.5325,3.5312,3.5355,3.5305,3.5327,3.5328,3.533,3.5444,3.5468,3.5548,3.5403,3.5405,3.5406,0,3.5367,3.5373,3.5427,3.5415,3.5422,3.5445,3.5452,3.5466,3.5463,3.5452,3.5456,3.5429,3.5456,3.5412,3.5449,3.5416,3.5423,3.5418,3.542,3.5422,3.5372,3.5448,3.5573,3.5585,3.5423,3.5421,3.542,0,3.5456,3.5478,3.5513,3.5514,3.5502,3.5519,3.5515,3.5509,3.5517,3.5522,3.5527,3.5536,3.5541,3.5548,3.5524,3.5493,3.5565,3.5518,3.5557,3.5558,3.5574,3.5574,3.5702,3.5579,3.5579,3.5578,3.5578,0,3.5553,3.5588,3.5553,3.5575,3.5612,3.5582,3.562,3.5611,3.5606,3.5625,3.5589,3.5608,3.5575,3.559,3.5571,3.5606,3.5608,3.56,3.5595,3.5604,3.5605,3.5609,3.5603,3.5581,3.5581,3.558,3.558,0,3.566,3.5638,3.5673,3.5659,3.5656,3.5684,3.5672,3.5691,3.5677,3.5701,3.5705,3.5683,3.5699,3.5676,3.5689,3.5677,3.5724,3.571,3.5725,3.5721,3.5762,3.5759,3.5898,3.5914,3.578,3.5781,3.5782,0,3.5723,3.5749,3.5737,3.5748,3.5745,3.5762,3.5769,3.574,3.5749,3.5747,3.5767,3.5781,3.579,3.5818,3.5803,3.5813,3.5799,3.5847,3.5801,3.5809,3.5801,3.58,3.5802,3.5857,3.5859,3.586,3.5861,0,3.5839,3.5826,3.5838,3.5847,3.5856,3.5862,3.5864,3.5874,3.5843,3.5855,3.5872,3.5879,3.5893,3.5907,3.5913,3.5909,3.588,3.5876,3.5885,3.5895,3.5903,3.59,3.5752,3.5873,3.5872,3.5871,3.587,3.587,3.5926,3.5947,3.5942,3.5956,3.5955,3.5958,3.5976,3.5963,3.5976,3.5985,3.5967,3.5988,3.5984,3.599,3.5989,3.6005,3.5984,3.5998,3.6002,3.6006,3.6012,3.59,3.6006,3.6005,3.6005,3.6005,3.6005,0,3.604,3.6034,3.6048,3.6052,3.6064,3.6035,3.6036,3.6048,3.6067,3.6066,3.6075,3.6094,3.6108,3.6093,3.6104,3.612,3.6107,3.6123,3.6122,3.6122,3.603,3.6021,3.6134,3.6134,3.6134,3.6134,3.6134,3.6133,3.61,3.6134,3.6121,3.6154,3.6149,3.6169,3.6172,3.6175,3.6174,3.6196,3.6207,3.6198,3.6191,3.6201,3.6212,3.6207,3.6213,3.6235,3.6226,3.6141,3.6128,3.6116,3.6107,3.6236,3.6236,3.6316,3.6317,3.6317]}]]